Location: Abyssinia Baptist Church
(32.7840°N, 96.7578°W)
Time: 20:17:59
(UTC+00:00)

SL-4 R/B - Pass Details

Date: 10 July 2022
Orbit: 425 x 653 km, 51.6° (Epoch: 08 August)

Event Time Altitude Azimuth Distance (km) Brightness Sun altitude
Rises 03:58:09 0° 248° (WSW) 2,372 5.5 -23.8°
Reaches altitude 10° 04:00:25 10° 260° (W) 1,508 4.6 -24.1°
Maximum altitude 04:03:24 29° 323° (NW) 823 3.6 -24.5°
Drops below altitude 10° 04:06:26 10° 25° (NNE) 1,541 4.6 -24.9°
Sets 04:08:47 0° 37° (NE) 2,437 5.5 -25.2°
